Wichita Falls, TX

12:02 AM CST on November 24, 2017 (GMT -0600)
Sheppard Air Force Base-Wichita Falls Municipal

Weather History for KSPS - January, 2014

Change the Weather History Date:

Sunday, January 26, 2014

  Actual Average Record
Temperature  
Mean Temperature 54 °F 43 °F  
Max Temperature 68 °F 55 °F 80 °F (1969)
Min Temperature 39 °F 30 °F 11 °F (1940)
Degree Days  
Heating Degree Days 11 22  
Month to date heating degree days 583 604  
Since 1 July heating degree days 1956 1801  
Growing Degree Days 4 (Base 50)    
Moisture  
Dew Point 25 °F    
Average Humidity 40    
Maximum Humidity 64    
Minimum Humidity 16    
Precipitation  
Precipitation 0.00 in 0.04 in 0.65 in (1944)
Month to date precipitation T 0.94  
Year to date precipitation T 0.94  
Snow  
Snow 0.00 in 0.10 in - ()
Month to date snowfall 0.0 1.2  
Since 1 July snowfall 0.7 2.5  
Snow Depth 0.00 in    
Sea Level Pressure  
Sea Level Pressure 29.76 in    
Wind  
Wind Speed 7 mph (WSW)    
Max Wind Speed 16 mph    
Max Gust Speed 31 mph    
Visibility 10 miles    
Events      
T = Trace of Precipitation, MM = Missing Value Source: NWS Daily Summary

Daily Weather History Graph

Daily Weather History Graph

Search for Another Location

Airport or City:

Trip Planner

Search our weather history database for the weather conditions in past years. The results will help you decide how hot, cold, wet, or windy it might be!

Date:

Astronomy

Jan. 26, 2014 Rise Set
Actual Time 7:34 AM CST 5:58 PM CST
Civil Twilight 7:08 AM CST 6:25 PM CST
Nautical Twilight 6:38 AM CST 6:55 PM CST
Astronomical Twilight 6:08 AM CST 7:25 PM CST
Moon 3:12 AM CST (1/26) 1:50 PM CST (1/26)
Length of Visible Light 11h 17m
Length of Day
10h 23m
Waning Crescent, 23% of the Moon is Illuminated
Jan 26
Waning Crescent
Jan 30
New
Feb 6
First Quarter
Feb 14
Full
Feb 22
Last Quarter

Hourly Weather History & Observations

Time (CST) Temp. Windchill Dew Point Humidity Pressure Visibility Wind Dir Wind Speed Gust Speed Precip Events Conditions
12:52 AM 46.0 °F 41.4 °F 28.0 °F 50% 29.91 in 10.0 mi SW 9.2 mph - N/A   Clear
1:52 AM 43.0 °F 39.5 °F 28.0 °F 56% 29.88 in 10.0 mi SSW 5.8 mph - N/A   Clear
2:52 AM 42.1 °F 37.7 °F 28.9 °F 60% 29.86 in 10.0 mi SSW 6.9 mph - N/A   Clear
3:52 AM 39.9 °F 35.8 °F 28.9 °F 65% 29.84 in 10.0 mi South 5.8 mph - N/A   Clear
4:52 AM 41.0 °F 36.4 °F 28.0 °F 60% 29.81 in 10.0 mi South 6.9 mph - N/A   Clear
5:52 AM 39.9 °F 34.5 °F 28.9 °F 65% 29.78 in 10.0 mi South 8.1 mph - N/A   Clear
6:52 AM 46.0 °F 44.8 °F 27.0 °F 47% 29.78 in 10.0 mi South 3.5 mph - N/A   Clear
7:52 AM 44.1 °F 41.5 °F 27.0 °F 51% 29.77 in 10.0 mi SSW 4.6 mph - N/A   Clear
8:52 AM 45.0 °F 43.5 °F 27.0 °F 49% 29.76 in 10.0 mi South 3.5 mph - N/A   Clear
9:52 AM 55.0 °F - 24.1 °F 30% 29.74 in 10.0 mi SSW 11.5 mph - N/A   Clear
10:52 AM 59.0 °F - 23.0 °F 25% 29.73 in 10.0 mi SW 12.7 mph - N/A   Mostly Cloudy
11:52 AM 61.0 °F - 21.9 °F 22% 29.71 in 10.0 mi SSW 6.9 mph - N/A   Mostly Cloudy
12:52 PM 64.0 °F - 19.0 °F 18% 29.69 in 10.0 mi Variable 3.5 mph - N/A   Scattered Clouds
1:52 PM 66.0 °F - 19.9 °F 17% 29.66 in 10.0 mi WNW 6.9 mph - N/A   Scattered Clouds
2:52 PM 66.9 °F - 21.0 °F 17% 29.65 in 10.0 mi NW 4.6 mph - N/A   Scattered Clouds
3:52 PM 66.0 °F - 19.9 °F 17% 29.66 in 10.0 mi West 6.9 mph - N/A   Partly Cloudy
4:52 PM 66.0 °F - 21.0 °F 18% 29.67 in 10.0 mi NW 3.5 mph - N/A   Clear
5:52 PM 61.0 °F - 21.0 °F 21% 29.69 in 10.0 mi North 4.6 mph - N/A   Clear
6:52 PM 57.0 °F - 24.1 °F 28% 29.70 in 10.0 mi NNW 4.6 mph - N/A   Clear
7:52 PM 54.0 °F - 23.0 °F 30% 29.75 in 10.0 mi NW 6.9 mph - N/A   Clear
8:52 PM 48.0 °F - 24.1 °F 39% 29.79 in 10.0 mi NNW 10.4 mph - N/A   Clear
9:52 PM 46.9 °F - 26.1 °F 44% 29.82 in 10.0 mi NNW 12.7 mph - N/A   Clear
10:52 PM 43.0 °F 36.8 °F 27.0 °F 53% 29.85 in 10.0 mi NNW 11.5 mph - N/A   Clear
11:52 PM 44.1 °F 37.4 °F 28.0 °F 53% 29.87 in 10.0 mi North 13.8 mph - N/A   Clear